Location: Franzen
(48.6167°N, 15.3833°E)
Time: 17:36:45
(UTC+00:00)

Courier 1B Rocket - Visible Passes

Search period start: 27 July 2021 00:00
Search period end: 06 August 2021 00:00
Orbit: 920 x 1202 km, 28.2° (Epoch: 26 July)

Date Brightness Start Highest point End Pass type
(mag) Time Alt. Az. Time Alt. Az. Time Alt. Az.
31 Jul 6.8 02:24:18 10° S 02:25:41 11° S 02:27:02 10° SSE visible
02 Aug 6.8 02:14:50 10° SSW 02:16:29 11° S 02:18:18 10° SSE visible
03 Aug 6.9 01:17:37 10° SSE 01:17:37 10° SSE 01:17:53 10° SSE visible
04 Aug 6.8 02:06:51 11° SSW 02:07:15 11° S 02:08:55 10° S visible
